"Pseudo-MPEC" for P22oVNL

Created 2026 Aug 13 14:35:21 UT using Find_Orb

Click here for an explanation of pseudo-MPECs

 
 Astrometry: 
     P22oVNL*0C2026 08 07.33461821 56 08.337+18 23 12.65   ~87AK 21.64wXNEOCPF52
     P22oVNL 0C2026 08 07.34678021 56 09.663+18 22 59.80   ~87AK 21.70wXNEOCPF52
     P22oVNL 0C2026 08 07.35890621 56 10.979+18 22 47.32   ~87AK 22.16wXNEOCPF52
     P22oVNL 0C2026 08 07.37102021 56 12.289+18 22 34.59   ~87AK 22.11wXNEOCPF52
     P22oVNL 0C2026 08 07.42937021 56 18.511+18 21 32.67   ~87Go 22.00GVNEOCPF51
     P22oVNL 0C2026 08 07.43019421 56 18.598+18 21 31.92   ~87Go 22.04GVNEOCPF51
     P22oVNL KC2026 08 08.27534821 57 56.95 +18 05 37.4    ~8875 22.1 GVNEOCPH21
     P22oVNL KC2026 08 08.27996621 57 57.46 +18 05 32.0    ~8875 21.9 GVNEOCPH21
     P22oVNL  C2026 08 09.26785821 59 54.856+17 45 46.35   ~897K 21.5 GWNEOCPH01
     P22oVNL  C2026 08 09.27227521 59 55.324+17 45 40.94   ~897K 21.6 GWNEOCPH01
     P22oVNL  C2026 08 09.28119121 59 56.333+17 45 29.94   ~897K 21.6 GWNEOCPH01
     P22oVNL  C2026 08 09.28948821 59 57.230+17 45 19.50   ~897K 21.8 GWNEOCPH01
     P22oVNL 1C2026 08 11.91815022 05 15.846+16 45 08.00   ~8BMZ 21.4 GXNEOCP033
     P22oVNL 1C2026 08 11.92175022 05 16.256+16 45 02.60   ~8BMZ 21.2 GXNEOCP033
     P22oVNL 1C2026 08 12.93169022 07 21.526+16 19 03.10   ~8CNZ 20.6 GXNEOCP033
     P22oVNL 1C2026 08 12.93530022 07 21.958+16 18 57.30   ~8CNZ 20.9 GXNEOCP033
     P22oVNL 1C2026 08 12.93890022 07 22.408+16 18 51.50   ~8CNZ 20.7 GXNEOCP033
     P22oVNL 1C2026 08 12.94250022 07 22.814+16 18 46.00   ~8CNZ 20.5 GXNEOCP033

Station data:
(033) Karl Schwarzschild Observatory, Tautenburg  (N50.980139 E11.711240)
   Germany.  Observer B. Stecklum. 1.34-m f/3 Schmidt + CCD.
(F51) Pan-STARRS 1, Haleakala  (N20.707234 W156.255910)  US/Hawaii.
   Observers J. Herman, T. Lowe, P. Minguez, A. Schultz, I. Smith. Measurers
   K. Chambers, T. de Boer, J. Fairlamb, H. Gao, M. Huber, C.-C. Lin, E.
   Magnier, Y. Ramanjooloo, R. Wainscoat, R. Weryk. 1.8-m Ritchey-Chrétien +
   CCD.
(F52) Pan-STARRS 2, Haleakala  (N20.707382 W156.255910)  US/Hawaii.
   Observers J. Herman, T. Lowe, P. Minguez, A. Schultz, I. Smith. Measurers
   K. Chambers, T. de Boer, J. Fairlamb, H. Gao, M. Huber, C.-C. Lin, E.
   Magnier, Y. Ramanjooloo, R. Wainscoat, R. Weryk. 1.8-m Ritchey-Chrétien +
   CCD.
(H01) Magdalena Ridge Observatory, Socorro  (N33.984833 W107.189333)  US/New
   Mexico.  Observers W. H. Ryan, E. V. Ryan. Measurer W. H. Ryan. 2.4-m
   f/8.9 reflector + CCD.
(H21) Astronomical Research Observatory, Westfield  (N39.483054 W87.968270)
   US/Illinois.  Observer R. Holmes. Measurers S. Foglia, L. Buzzi, T.
   Linder, R. Holmes. 0.40-m f/5.32 astrograph + CCD.

Orbital elements:  P22oVNL
   Perihelion 2026 Sep 4.303060 +/- 0.0583 TT =  7:16:24.4 (JD 2461287.803060)
Epoch 2026 Aug 12.0 TT = JDT 2461264.5   Earth MOID: 0.2620      AutoNEOCP
M 354.523153294 +/- 0.035           (J2000 ecliptic)
n   0.235026927 +/- 0.00182         Peri.  175.503631 +/- 0.058
a   2.600504644 +/- 0.0135          Node   166.730932 +/- 0.009
e   0.51188333 +/- 0.00224          Incl.   15.857850 +/- 0.043
P   4.19359                H 22.33  G  0.15   U  8.5
q 1.269349654 +/- 0.00075    Q 3.931659634 +/- 0.0262
From 18 observations 2026 Aug. 7-12; mean residual 0".12
Residuals in arcseconds: 
260807 F52  .10-  .10+    260808 H21  .17+  .04-    260811 033  .09-  .12+    
260807 F52  .07-  .11-    260808 H21  .29+  .10-    260811 033  .23-  .04+    
260807 F52  .03-  .06+    260809 H01  .04+  .09+    260812 033  .14-  .03+    
260807 F52  .03+  .02+    260809 H01  .23-  .11+    260812 033  .05-  .07-    
260807 F51  .04+  .10-    260809 H01  .18+  .11+    260812 033  .32+  .17-    
260807 F51  .04+  .04+    260809 H01  .03-  .08-    260812 033  .06+  .03+    

Ephemerides (geocentric):
Date (UTC) HH   RA             Dec           delta  r     elong  mag " sig PA
---- --------  ------------   ------------  ------ ------ -----  --- --------
2026 08 13 15  22 08 48.067   +16 00 31.35  .31502 1.2911 148.0 21.5 .222  56
2026 08 13 16  22 08 53.322   +15 59 22.08  .31485 1.2910 148.0 21.5 .231  55
2026 08 13 17  22 08 58.580   +15 58 12.64  .31468 1.2910 148.1 21.5 .241  55
2026 08 13 18  22 09 03.840   +15 57 03.03  .31451 1.2909 148.1 21.5 .250  54
2026 08 13 19  22 09 09.104   +15 55 53.24  .31433 1.2908 148.1 21.5 .260  54
2026 08 13 20  22 09 14.370   +15 54 43.29  .31416 1.2907 148.2 21.5 .270  54
2026 08 13 21  22 09 19.640   +15 53 33.17  .31399 1.2906 148.2 21.5 .280  53
2026 08 13 22  22 09 24.912   +15 52 22.87  .31382 1.2906 148.3 21.5 .290  53
2026 08 13 23  22 09 30.187   +15 51 12.41  .31365 1.2905 148.3 21.5 .300  53
2026 08 14 00  22 09 35.466   +15 50 01.78  .31348 1.2904 148.3 21.5 .310  53
2026 08 14 01  22 09 40.747   +15 48 50.97  .31331 1.2903 148.4 21.5 .320  52
2026 08 14 02  22 09 46.030   +15 47 39.99  .31314 1.2902 148.4 21.5 .331  52
2026 08 14 03  22 09 51.317   +15 46 28.85  .31297 1.2902 148.4 21.5 .341  52
2026 08 14 04  22 09 56.607   +15 45 17.53  .31280 1.2901 148.5 21.5 .352  52
2026 08 14 05  22 10 01.900   +15 44 06.04  .31264 1.2900 148.5 21.5 .363  52
2026 08 14 06  22 10 07.195   +15 42 54.38  .31247 1.2899 148.5 21.5 .373  52
2026 08 14 07  22 10 12.494   +15 41 42.55  .31230 1.2898 148.6 21.5 .384  51
2026 08 14 08  22 10 17.795   +15 40 30.54  .31213 1.2897 148.6 21.5 .396  51
2026 08 14 09  22 10 23.099   +15 39 18.37  .31196 1.2897 148.6 21.5 .407  51
2026 08 14 10  22 10 28.406   +15 38 06.02  .31180 1.2896 148.7 21.5 .418  51
2026 08 14 11  22 10 33.716   +15 36 53.51  .31163 1.2895 148.7 21.5 .429  51
2026 08 14 12  22 10 39.029   +15 35 40.82  .31146 1.2894 148.8 21.5 .441  51
2026 08 14 13  22 10 44.345   +15 34 27.96  .31129 1.2894 148.8 21.5 .453  51
2026 08 14 14  22 10 49.664   +15 33 14.93  .31113 1.2893 148.8 21.5 .464  51
2026 08 14 15  22 10 54.986   +15 32 01.72  .31096 1.2892 148.9 21.5 .476  50
2026 08 14 16  22 11 00.310   +15 30 48.35  .31079 1.2891 148.9 21.5 .488  50
2026 08 14 17  22 11 05.638   +15 29 34.80  .31063 1.2890 148.9 21.5 .500  50
2026 08 14 18  22 11 10.968   +15 28 21.09  .31046 1.2890 149.0 21.5 .512  50
2026 08 14 19  22 11 16.302   +15 27 07.20  .31030 1.2889 149.0 21.5 .525  50
2026 08 14 20  22 11 21.638   +15 25 53.13  .31013 1.2888 149.0 21.5 .537  50
2026 08 14 21  22 11 26.977   +15 24 38.90  .30997 1.2887 149.1 21.5 .550  50
2026 08 14 22  22 11 32.319   +15 23 24.49  .30980 1.2886 149.1 21.5 .562  50
2026 08 14 23  22 11 37.664   +15 22 09.91  .30964 1.2886 149.2 21.5 .575  50
2026 08 15 00  22 11 43.012   +15 20 55.16  .30947 1.2885 149.2 21.5 .588  50
2026 08 15 01  22 11 48.363   +15 19 40.24  .30931 1.2884 149.2 21.4 .600  50
2026 08 15 02  22 11 53.716   +15 18 25.15  .30914 1.2883 149.3 21.4 .614  50
2026 08 15 03  22 11 59.073   +15 17 09.88  .30898 1.2883 149.3 21.4 .627  50
2026 08 15 04  22 12 04.433   +15 15 54.44  .30882 1.2882 149.3 21.4 .640  50
2026 08 15 05  22 12 09.795   +15 14 38.83  .30865 1.2881 149.4 21.4 .653  49
2026 08 15 06  22 12 15.160   +15 13 23.05  .30849 1.2880 149.4 21.4 .667  49
2026 08 15 07  22 12 20.529   +15 12 07.09  .30833 1.2879 149.5 21.4 .680  49
2026 08 15 08  22 12 25.900   +15 10 50.96  .30817 1.2879 149.5 21.4 .694  49
2026 08 15 09  22 12 31.274   +15 09 34.66  .30800 1.2878 149.5 21.4 .708  49
2026 08 15 10  22 12 36.651   +15 08 18.19  .30784 1.2877 149.6 21.4 .721  49
2026 08 15 11  22 12 42.031   +15 07 01.54  .30768 1.2876 149.6 21.4 .735  49
2026 08 15 12  22 12 47.414   +15 05 44.72  .30752 1.2876 149.6 21.4 .749  49
2026 08 15 13  22 12 52.800   +15 04 27.73  .30736 1.2875 149.7 21.4 .764  49
2026 08 15 14  22 12 58.188   +15 03 10.57  .30720 1.2874 149.7 21.4 .778  49